sat.trackr.live / text

‹ back to catalog

ONEWEB-0146

NORAD 47292 · 2020-100AL

PAYLOAD ACTIVE UNKNOWN

§ Identity

Operator
Country
UK
Launch date
2020-12-18
Launch site
VOSTO
Launch vehicle
Mass (kg)
RCS (m²)

Purposes: comms

External: N2YO · Heavens-Above · Gunter

§ Orbital elements

Epoch: 2026-05-25T01:57:24.954048Z

Period
109.72 min
Inclination
87.8959°
Eccentricity
0.0002039
Mean motion
13.12443255 rev/d
Perigee alt
1,212.2 km
Apogee alt
1,215.3 km
Semi-major
7,591.9 km
B*
-9.3527e-4
RAAN
355.2557°
Arg perigee
78.5506°
Mean anomaly
281.5851°
Rev number
26,164

§ Raw data

ONEWEB-01461 47292U 20100AL  26145.08153882 -.00000324  00000+0 -93527-3 0  99992 47292  87.8959 355.2557 0002039  78.5506 281.5851 13.12443255261648

JSON: /api/v1/satellites/47292 · /tle

For live sub-satellite position, see the globe view (requires WebGL).

§ Visibility from observer

Set your observer location to see the next 7 days of passes ≥ 10°. The values pass through the URL so the page stays shareable.

No JS? Fill the form by hand. The geolocation button needs JavaScript.